• In Deutschland
  • Länderverzeichnis
  • Für 7 Tage
  • Wassertemperatur
  • Satellitenkarten
  • Wetterkarte
  • Widgets
  • user-avatar
    Anmelden

    Stündliche Wetter Goldene Küste

    Heute, 19 Januar, Freitag

    Zeit Temperatur Niederschläge Wind Luftdruck Luftfeuchtigkeit
    00:00 +18°C° 0 mm 3 m/S 758 mmHg 74%
    01:00 +18°C° 0 mm 3 m/S 758 mmHg 75%
    02:00 +17°C° 0 mm 3 m/S 758 mmHg 75%
    03:00 +17°C° 0 mm 3 m/S 758 mmHg 75%
    04:00 +17°C° 0 mm 3 m/S 757 mmHg 75%
    05:00 +18°C° 0 mm 2 m/S 757 mmHg 68%
    06:00 +20°C° 0 mm 2 m/S 757 mmHg 62%
    07:00 +23°C° 0 mm 2 m/S 757 mmHg 55%
    08:00 +26°C° 0 mm 2 m/S 757 mmHg 46%
    09:00 +30°C° 0 mm 2 m/S 757 mmHg 36%
    10:00 +34°C° 0 mm 2 m/S 757 mmHg 26%
    11:00 +35°C° 0 mm 3 m/S 757 mmHg 24%
    12:00 +36°C° 0 mm 4 m/S 756 mmHg 23%
    13:00 +37°C° 0 mm 4 m/S 756 mmHg 21%
    14:00 +36°C° 0 mm 5 m/S 755 mmHg 25%
    15:00 +35°C° 0 mm 5 m/S 755 mmHg 28%
    16:00 +34°C° 0 mm 5 m/S 755 mmHg 32%
    17:00 +30°C° 0 mm 5 m/S 755 mmHg 40%
    18:00 +28°C° 0 mm 4 m/S 755 mmHg 49%
    19:00 +25°C° 0 mm 4 m/S 755 mmHg 58%
    20:00 +23°C° 0 mm 4 m/S 756 mmHg 63%
    21:00 +21°C° 0 mm 3 m/S 756 mmHg 68%
    22:00 +20°C° 0 mm 3 m/S 756 mmHg 73%
    23:00 +20°C° 0 mm 3 m/S 756 mmHg 75%

    Morgen, 20 Januar, Samstag

    Zeit Temperatur Niederschläge Wind Luftdruck Luftfeuchtigkeit
    00:00 +19°C° 0 mm 3 m/S 755 mmHg 76%
    01:00 +19°C° 0 mm 3 m/S 755 mmHg 77%
    02:00 +18°C° 0 mm 3 m/S 755 mmHg 79%
    03:00 +18°C° 0 mm 3 m/S 755 mmHg 81%
    04:00 +18°C° 0 mm 3 m/S 755 mmHg 82%
    05:00 +19°C° 0 mm 4 m/S 755 mmHg 77%
    06:00 +20°C° 0 mm 4 m/S 756 mmHg 72%
    07:00 +22°C° 0 mm 4 m/S 756 mmHg 67%
    08:00 +25°C° 0 mm 4 m/S 756 mmHg 59%
    09:00 +28°C° 0 mm 4 m/S 756 mmHg 51%
    10:00 +32°C° 0 mm 5 m/S 756 mmHg 43%
    11:00 +33°C° 0 mm 5 m/S 755 mmHg 40%
    12:00 +34°C° 0 mm 5 m/S 755 mmHg 37%
    13:00 +35°C° 0 mm 5 m/S 754 mmHg 35%
    14:00 +35°C° 0 mm 6 m/S 754 mmHg 37%
    15:00 +34°C° 0 mm 6 m/S 754 mmHg 39%
    16:00 +34°C° 0 mm 7 m/S 753 mmHg 41%
    17:00 +32°C° 0 mm 6 m/S 754 mmHg 50%
    18:00 +28°C° 0 mm 6 m/S 754 mmHg 59%
    19:00 +26°C° 0 mm 6 m/S 754 mmHg 68%
    20:00 +25°C° 0 mm 5 m/S 755 mmHg 75%
    21:00 +23°C° 0 mm 5 m/S 755 mmHg 81%
    22:00 +22°C° 0 mm 5 m/S 756 mmHg 88%
    23:00 +22°C° 0,1 mm 4 m/S 755 mmHg 89%

    übermorgen, 21 Januar, Sonntag

    Zeit Temperatur Niederschläge Wind Luftdruck Luftfeuchtigkeit
    00:00 +21°C° 0,1 mm 4 m/S 755 mmHg 91%
    01:00 +21°C° 0,1 mm 4 m/S 755 mmHg 92%
    02:00 +21°C° 0 mm 4 m/S 754 mmHg 92%
    03:00 +21°C° 0 mm 4 m/S 754 mmHg 92%
    04:00 +21°C° 0 mm 5 m/S 754 mmHg 92%
    05:00 +22°C° 0 mm 4 m/S 754 mmHg 88%
    06:00 +23°C° 0 mm 4 m/S 755 mmHg 84%
    07:00 +25°C° 0 mm 4 m/S 755 mmHg 80%
    08:00 +27°C° 0,1 mm 4 m/S 755 mmHg 71%
    09:00 +29°C° 0,1 mm 4 m/S 755 mmHg 63%
    10:00 +30°C° 0,1 mm 4 m/S 755 mmHg 54%
    11:00 +32°C° 0,1 mm 4 m/S 755 mmHg 53%
    12:00 +32°C° 0,1 mm 4 m/S 754 mmHg 52%
    13:00 +33°C° 0,1 mm 4 m/S 754 mmHg 51%
    14:00 +32°C° 0 mm 4 m/S 754 mmHg 54%
    15:00 +32°C° 0 mm 4 m/S 753 mmHg 56%
    16:00 +30°C° 0 mm 4 m/S 753 mmHg 58%
    17:00 +29°C° 0 mm 4 m/S 753 mmHg 65%
    18:00 +28°C° 0 mm 3 m/S 754 mmHg 71%
    19:00 +26°C° 0 mm 3 m/S 754 mmHg 77%
    20:00 +25°C° 0 mm 3 m/S 754 mmHg 81%
    21:00 +24°C° 0 mm 3 m/S 755 mmHg 85%
    22:00 +24°C° 0 mm 2 m/S 755 mmHg 89%
    23:00 +23°C° 0 mm 2 m/S 755 mmHg 90%

    22 Januar, Montag

    Zeit Temperatur Niederschläge Wind Luftdruck Luftfeuchtigkeit
    00:00 +23°C° 0 mm 2 m/S 755 mmHg 91%
    01:00 +23°C° 0 mm 1 m/S 754 mmHg 92%
    02:00 +23°C° 0,1 mm 1 m/S 754 mmHg 93%
    03:00 +21°C° 0,1 mm 2 m/S 754 mmHg 94%
    04:00 +21°C° 0,1 mm 2 m/S 754 mmHg 94%
    05:00 +23°C° 0,1 mm 2 m/S 754 mmHg 89%
    06:00 +25°C° 0,1 mm 1 m/S 754 mmHg 84%
    07:00 +26°C° 0,1 mm 1 m/S 755 mmHg 79%
    08:00 +28°C° 0 mm 2 m/S 755 mmHg 67%
    09:00 +31°C° 0 mm 2 m/S 754 mmHg 56%
    10:00 +34°C° 0 mm 2 m/S 754 mmHg 45%
    11:00 +35°C° 0 mm 2 m/S 754 mmHg 43%
    12:00 +36°C° 0 mm 3 m/S 753 mmHg 41%
    13:00 +36°C° 0 mm 3 m/S 753 mmHg 39%
    14:00 +36°C° 0 mm 4 m/S 753 mmHg 43%
    15:00 +35°C° 0 mm 4 m/S 752 mmHg 47%
    16:00 +34°C° 0 mm 5 m/S 752 mmHg 51%
    17:00 +32°C° 0 mm 4 m/S 752 mmHg 58%
    18:00 +29°C° 0 mm 4 m/S 753 mmHg 65%
    19:00 +27°C° 0 mm 4 m/S 753 mmHg 73%
    20:00 +26°C° 0 mm 4 m/S 754 mmHg 78%
    21:00 +25°C° 0 mm 3 m/S 754 mmHg 83%
    22:00 +24°C° 0 mm 3 m/S 755 mmHg 88%
    23:00 +24°C° 0 mm 3 m/S 754 mmHg 89%

    23 Januar, Dienstag

    Zeit Temperatur Niederschläge Wind Luftdruck Luftfeuchtigkeit
    00:00 +24°C° 0 mm 3 m/S 754 mmHg 90%
    01:00 +24°C° 0 mm 2 m/S 754 mmHg 91%
    02:00 +23°C° 0 mm 2 m/S 754 mmHg 92%
    03:00 +23°C° 0 mm 2 m/S 753 mmHg 92%
    04:00 +23°C° 0 mm 1 m/S 753 mmHg 93%
    05:00 +24°C° 0 mm 1 m/S 754 mmHg 88%
    06:00 +25°C° 0 mm 1 m/S 754 mmHg 83%
    07:00 +27°C° 0 mm 1 m/S 755 mmHg 78%
    08:00 +28°C° 0 mm 1 m/S 754 mmHg 70%
    09:00 +30°C° 0 mm 2 m/S 754 mmHg 61%
    10:00 +32°C° 0 mm 2 m/S 754 mmHg 52%
    11:00 +34°C° 0 mm 2 m/S 754 mmHg 48%
    12:00 +35°C° 0 mm 3 m/S 753 mmHg 44%
    13:00 +36°C° 0 mm 3 m/S 753 mmHg 41%
    14:00 +35°C° 0 mm 4 m/S 752 mmHg 43%
    15:00 +35°C° 0 mm 4 m/S 752 mmHg 45%
    16:00 +34°C° 0 mm 5 m/S 752 mmHg 47%
    17:00 +32°C° 0 mm 5 m/S 752 mmHg 55%
    18:00 +29°C° 0 mm 4 m/S 753 mmHg 63%
    19:00 +27°C° 0 mm 4 m/S 753 mmHg 71%
    20:00 +26°C° 0 mm 4 m/S 754 mmHg 77%
    21:00 +25°C° 0 mm 4 m/S 754 mmHg 82%
    22:00 +24°C° 0 mm 3 m/S 754 mmHg 88%
    23:00 +24°C° 0 mm 3 m/S 754 mmHg 88%

    24 Januar, Mittwoch

    Zeit Temperatur Niederschläge Wind Luftdruck Luftfeuchtigkeit
    00:00 +24°C° 0 mm 2 m/S 754 mmHg 88%
    01:00 +24°C° 0 mm 2 m/S 753 mmHg 89%
    02:00 +24°C° 0 mm 2 m/S 753 mmHg 89%
    03:00 +23°C° 0 mm 1 m/S 753 mmHg 90%
    04:00 +23°C° 0 mm 1 m/S 753 mmHg 91%
    05:00 +24°C° 0 mm 2 m/S 753 mmHg 85%
    06:00 +25°C° 0 mm 2 m/S 754 mmHg 79%
    07:00 +27°C° 0 mm 2 m/S 754 mmHg 74%
    08:00 +28°C° 0 mm 2 m/S 754 mmHg 65%
    09:00 +30°C° 0 mm 3 m/S 754 mmHg 55%
    10:00 +33°C° 0 mm 3 m/S 754 mmHg 46%
    11:00 +34°C° 0 mm 4 m/S 753 mmHg 44%
    12:00 +35°C° 0 mm 4 m/S 753 mmHg 42%
    13:00 +35°C° 0 mm 4 m/S 752 mmHg 40%
    14:00 +35°C° 0 mm 5 m/S 752 mmHg 43%
    15:00 +34°C° 0 mm 5 m/S 752 mmHg 46%
    16:00 +33°C° 0 mm 5 m/S 752 mmHg 49%
    17:00 +30°C° 0 mm 5 m/S 752 mmHg 58%
    18:00 +28°C° 0 mm 5 m/S 752 mmHg 67%
    19:00 +26°C° 0 mm 4 m/S 753 mmHg 77%
    20:00 +26°C° 0 mm 4 m/S 753 mmHg 82%
    21:00 +25°C° 0 mm 4 m/S 753 mmHg 87%
    22:00 +23°C° 0 mm 4 m/S 753 mmHg 92%
    23:00 +24°C° 0,1 mm 3 m/S 753 mmHg 93%
    Mehr zeigen